Regional Weather Roundup
Issued by NWS

Home | Current Version | Previous Version | Graphics & Text | Print | Product List | Glossary On
Versions: 1 2 3 4 5 6 7 8 9 10 11 12 13 14 15 16 17 18 19 20 21 22 23 24 25 26 27 28 29 30 31 32 33 34 35 36 37 38 39 40 41 42 43 44 45 46 47 48 49 50
000
ASUS45 KTFX 270519
RWRMT
MONTANA HOURLY WEATHER ROUNDUP
NATIONAL WEATHER SERVICE GREAT FALLS MT
1019 PM MST MON JAN 26 2015

NOTE: "FAIR" INDICATES FEW OR NO CLOUDS BELOW 12000 FEET WITH NO
SIGNIFICANT WEATHER AND/OR OBSTRUCTIONS TO VISIBILITY.

* THESE STATIONS ARE NOT UNDER NWS QUALITY CONTROL. THEY DO NOT
   REPORT WEATHER SUCH AS PRECIPITATION OR FOG.

MTZ001>007-043-270600-
WEST OF THE DIVIDE
CITY           SKY/WX    TMP DP  RH WIND       PRES   REMARKS
KALISPELL      PTCLDY    21  21 100 CALM      30.02S
MISSOULA       CLEAR     32  28  85 CALM      30.07S
BUTTE          CLEAR     34  27  76 VRB3      30.12R
MULLAN PASS    CLEAR     45  27  49 VRB7G17   30.06S
* ANACONDA     PTCLDY    48  25  41 S8         N/A
* ESSEX        N/A       29  28  96 SE1        N/A
* EUREKA APT   PTCLDY    34  28  79 NE3       30.00R
* HAMILTON APT CLEAR     37  28  70 E2        30.05R
* LIBBY APT    PTCLDY    27  27 100 CALM      30.03R
* LINCOLN      N/A       45  26  47 NW3G12     N/A
* LOOKOUT PASS N/A       40  30  68 NE1        N/A
* POLSON       N/A       45  31  58 SE2        N/A
* RONAN APT    PTCLDY    32  32 100 N/A        N/A
* SEELEY LAKE  N/A       27  24  88 NE1        N/A
* THOMP F APT  CLEAR     37  23  57 NE2G7      N/A
* YAAK HILL    N/A       31  29  92 SW1        N/A
$$

MTZ008-052>055-270600-
SOUTHWEST MONTANA
CITY           SKY/WX    TMP DP  RH WIND       PRES   REMARKS
BOZEMAN        CLEAR     34  27  76 SE5       30.09S WCI  29
DILLON         CLEAR     41  28  60 S8        30.13S
* W YELLOWSTON CLEAR     20  19  96 N/A        N/A
* THREE FORKS  PTCLDY    28  28 100 N/A        N/A
* BOULDER HILL N/A       43  23  45 SW13       N/A
* MONIDA PASS  N/A       30  26  85 NE1G7      N/A
* RAYNOLDS PAS N/A       29  16  58 SW12       N/A   WCI  19
* WHITEHALL    N/A       47  29  50 W8G14      N/A
* WISE RIVER   N/A       31  26  82 SW1        N/A
$$

MTZ009>010-012-014-046-048-049-054-270600-
EAST SLOPES AND CENTRAL MONTANA
CITY           SKY/WX    TMP DP  RH WIND       PRES   REMARKS
CUT BANK       MOCLDY    50  25  38 SW15      29.87F
GREAT FALLS    PTCLDY    50  28  43 SW15      29.93S
HELENA         CLEAR     36  28  73 CALM      30.03S
MALMSTROM AFB  MOCLDY    50  30  46 SW16      29.92S
* CONRAD       MOCLDY    39  30  70 S5         N/A   WCI  35
* DEARBORN     N/A       50  30  46 S11        N/A
* EAST GLACIER N/A       53  17  24 SW7G35     N/A
* MONARCH      N/A       54  20  26 SW14G22    N/A
* PENDROY      N/A       45  23  42 NE4        N/A
* ROGERS PASS  N/A       49  23  36 SE14G23    N/A
* SWEET GRASS  N/A       50  27  41 SW17G24    N/A
* WHITE SULPH  N/A       50  30  46 S13G19     N/A
$$

MTZ011-013-016-021-035-040-045-047-050-051-270600-
NORTH CENTRAL MONTANA
CITY           SKY/WX    TMP DP  RH WIND       PRES   REMARKS
HAVRE          MOCLDY    45  34  65 SW16      29.82F
LEWISTOWN      PTCLDY    48  28  46 SW15      29.94R
* N BAR RANCH  CLEAR     55  23  29 W13       29.95F
* CHINOOK      PTCLDY    34  30  85 E3        29.84S
* MALTA APT    PTCLDY    30  25  82 N/A        N/A
* CHESTER      N/A       38  31  76 SE3        N/A
* DENTON       N/A       47  29  50 S6         N/A
* GEYSER       N/A       55  27  34 W14G19     N/A
* JUDITH GAP   N/A       49  27  43 SW13G19    N/A
* LOMA         N/A       47  32  56 N4         N/A
$$

MTZ017>020-022>027-061-062-270600-
NORTHEAST MONTANA
CITY           SKY/WX    TMP DP  RH WIND       PRES   REMARKS
GLASGOW        CLEAR     36  30  79 SE8       29.84F WCI  30
GLENDIVE       CLEAR     37  30  76 S5        29.90S WCI  33
JORDAN         CLEAR     30  28  92 CALM      29.86F
SIDNEY         PTCLDY    30  28  92 CALM      29.89F
WOLF POINT     CLEAR     30  27  89 CALM      29.86F
* BEAVER HILL  N/A       44  33  65 S11        N/A
* CIRCLE       N/A       41  35  79 N/A        N/A
* LINDSAY DVD  N/A       49  30  48 SW8        N/A
* NAVAJO       N/A       38  32  79 W9         N/A   WCI  32
* PLENTYWOOD A PTCLDY    36  34  92 E5        29.86F WCI  32
* POPLAR APT   PTCLDY    37  34  89 N/A       29.85F
* SACO         N/A       36  33  89 E4         N/A
* SCOBEY APT   PTCLDY    32  28  85 N/A        N/A
$$

MTZ028>042-056>058-270600-
SOUTHCENTRAL AND SOUTHEAST MONTANA
CITY           SKY/WX    TMP DP  RH WIND       PRES   REMARKS
BAKER          CLEAR     32  28  85 E3        29.93S
BILLINGS       PTCLDY    52  27  38 SW20      30.00R
LIVINGSTON     CLEAR     57  25  29 SW30G44   30.04S
MILES CITY     CLEAR     41  32  70 S9        29.91R
* BIG TIMBER A CLEAR     48  27  44 SW12      30.04S
* FORSYTH APT  CLEAR     50  30  46 SW5       29.90F
* LAUREL APT   CLEAR     48  25  41 S14G21     N/A
* ROUNDUP APT  CLEAR     46  27  48 SW6        N/A
* ALZADA       N/A       41  31  68 W4         N/A
* HYSHAM       N/A       51  26  38 W8G13      N/A
* LAME DEER    N/A       54  26  34 SW6        N/A
* REED POINT   N/A       33  30  89 E1         N/A
* ROSCOE HILL  N/A       59  13  16 W2G16      N/A
$$

REGIONAL REPORTS...DAKOTAS
CITY           SKY/WX    TMP DP  RH WIND       PRES   REMARKS
WILLISTON      PTCLDY    28  28 100 CALM      29.88S
DICKINSON      CLEAR     36  30  79 S10       29.89F WCI  29
BEACH          CLEAR     36  32  85 SW3       29.91F
CROSBY         CLEAR     32  32 100 SW9       29.87F WCI  24
TIOGA          CLEAR     28  28 100 SW3       29.92S
WATFORD CITY   CLEAR     32  28  85 CALM      29.87F
BISMARCK       PTCLDY    30  28  92 E5        29.97F WCI  25
GRAND FORKS    FOG       25  23  92 E3        30.02R VSB 3/4
FARGO          CLEAR     25  23  92 CALM      30.02S
BUFFALO SD     CLEAR     43  34  71 W7        29.88S
RAPID CITY     CLEAR     46  27  48 W3        29.97F
$$

REGIONAL REPORTS...WYOMING/IDAHO/WASHINGTON
CITY           SKY/WX    TMP DP  RH WIND       PRES   REMARKS
GILLETTE       CLEAR     48  28  46 SW13      30.03S
SHERIDAN       CLEAR     39  27  62 CALM      30.00S
CODY           CLEAR     36  30  79 CALM      30.12S
YELLOWSTONE LA PTCLDY    18  12  77 CALM      30.32F
SALMON         CLOUDY   N/A N/A N/A CALM      30.22S VSB 1/2
MULLAN PASS    CLEAR     45  27  49 VRB7G17   30.06S
SAND POINT     FOG       32  32 100 CALM      30.03S VSB M1/4
SPOKANE        PTCLDY    37  36  96 CALM      29.99S
$$

REGIONAL REPORTS...ALBERTA
CITY           SKY/WX    TMP DP  RH WIND       PRES   REMARKS
CALGARY        MOCLDY    48  27  44 W5        29.73S
LETHBRIDGE     MOCLDY    46  30  54 SW9       29.81R
MEDICINE HAT   CLEAR     39  34  82 W6        29.74R WCI  35
EDMONTON       CLOUDY    34  30  85 VRB2      29.77R
WATERTON GATE  N/A       55  21  27 SW31G61    N/A
CARDSTON       N/A       50  27  41 S5         N/A
MILK RIVER     N/A       37  30  76 W3         N/A
$$

REGIONAL REPORTS...SASKATCHEWAN
CITY           SKY/WX    TMP DP  RH WIND       PRES   REMARKS
SWIFT CURRENT  CLEAR     36  32  85 S8        29.76F WCI  30
REGINA         FAIR      30  28  92 SE10      29.83F WCI  21
VAL MARIE      N/A       28  27  96 SW1        N/A
ASSINIBOIA     N/A       32  30  92 SW3        N/A
CORONACH       N/A       30  28  92 SE3        N/A

$$



USA.gov is the U.S. government's official web portal to all federal, state and local government web resources and services.